Location: Brahman Valley
(40.6513°N, 111.8855°W)
Time: 01:16:14
(UTC+00:00)

N. Korean satellite - Visible Passes

Search period start: 20 April 2021 00:00
Search period end: 30 April 2021 00:00
Orbit: 452 x 499 km, 97.2° (Epoch: 19 April)

Date Brightness Start Highest point End Pass type
(mag) Time Alt. Az. Time Alt. Az. Time Alt. Az.
20 Apr 9.5 12:00:54 10° NE 12:03:21 17° E 12:05:47 10° SE visible
24 Apr 9.9 11:47:15 10° ENE 11:48:25 11° E 11:49:34 10° ESE visible
27 Apr 9.5 11:58:24 10° NE 12:00:38 16° E 12:02:51 10° SE visible
